DECAYED

STARLINK-1832, 46780 (Decayed)

Orbit data source: Space-Track

STARLINK-1832, 46780 was a payload satellite owned by SpaceX/Seattle (US) in LEO that was launched on Sat, 24 Oct 2020 UTC via an FALCON 9 launch vehicle from the Air Force Eastern Test Range (AFETR). Payload-class satellites include a variety of spacecraft equipped with specific instruments for various scientific and technological missions. These include communications satellites like Starlink; space stations such as the ISS; scientific satellites like the Hubble; Earth observation satellites from companies like Planet Labs, Umbra, and HawkEye 360; GPS; miniature CubeSats for education and research; and military/defense satellites.

Not visible in the next 10 days
Identifier
46780, 2020-074AT
Orbit
Decayed
Country
Flag of USUS
Related business
Manufacturer
SpaceX/Seattle
Mission
Decayed Commercial Communications
Bus & Motor
STARLINK, Unknown motor
Mass
260 kg wet, ~248 kg dry
Launch date (UTC)
2020-10-24 (6 years ago)
Launch vehicle
FALCON 9
Launch site
Air Force Eastern Test Range (AFETR)
Object type
Payload
Rocket body
Debris
Shape & HBR
Box + 1 Pan, 10.1 m
Radar Cross Section
13.562 m², Large (>1 m²)

Expand to show TLE details & history
Last TLE update: 5 days ago

TLE from 5 days ago
0 STARLINK-1832
1 46780U 20074AT  26122.06279451  .08857773  12320-4  65286-3 0  9992
2 46780  53.0192 354.9333 0009436 256.7748 103.2246 16.39739041305939
Epoch: 2026-05-02T01:30Z
TLE epoch observation values (Epoch: 2026-05-02T01:30:25.445Z)
Latitude
-0°
Longitude
112.34119°
Altitude
168.841 km
Speed
7.805 km/s
True Right ascension
23h 39m 43s
True Declination
0° 00' 00"
Sunlit
Object was in daylight at epoch
Visualization orbit readout
Latitude
Unknown
Longitude
Unknown
Altitude
Unknown
Speed
Unknown
Apparent Right ascension
Unknown
Apparent Declination
Unknown
Sunlit
N/A
Visualization observer readout
Local Sidereal Time
20:56:43
Azimuth
Unknown
Elevation
Unknown
Doppler factor
Unknown
Orbital elements
Apogee altitude
172.965 km
Perigee altitude
160.613 km
Semi-major axis
6,544.926 km
Eccentricity
0.00094
Inclination
53.0192°
RAAN
354.9333°
Arg. of periapsis
256.7748°
True anomaly
103.32983°
Mean anomaly
103.2246°
Eccentric anomaly
103.27722°
Mean motion
4.09908 °/min
Orbital period
87.82 mins
BSTAR
0.00065286
Loading maneuver chart data...
Computing Atmospheric mass density...

Documentation

Showing up to 5 results
|